FLX9911 SBUL-SBJV

Flight info

Callsign FLX9911
Flight time 1h 23m
Altitude 31000
Route ISRIK UZ2 ENTIT/N0477F320 DCT ANBAM UZ92 PUBIS
Aircraft B738/M-SDE2E3FGHIRWXY/LB1

Departure

Time 2026-04-20 18:12
Airport Ten. Cel. Aviador César Bombonato Airport (SBUL)

Arrival

Time 2026-04-20 19:35
Airport Lauro Carneiro de Loyola Airport (SBJV)
Time Latitude Longitude Altitude Speed Heading
2026-04-20 18:01 -18.88938 -48.23014 3107 ft 0 kts 291°
2026-04-20 18:06 -18.88943 -48.22997 3107 ft 2 kts 289°
2026-04-20 18:06 -18.88948 -48.22981 3107 ft 2 kts 271°
2026-04-20 18:07 -18.88941 -48.22967 3107 ft 2 kts 201°
2026-04-20 18:07 -18.88937 -48.22965 3107 ft 0 kts 201°
2026-04-20 18:10 -18.88941 -48.22967 3107 ft 1 kts 201°
2026-04-20 18:10 -18.88954 -48.22973 3107 ft 3 kts 201°
2026-04-20 18:10 -18.88978 -48.22982 3106 ft 4 kts 201°
2026-04-20 18:10 -18.89012 -48.22990 3106 ft 5 kts 169°
2026-04-20 18:11 -18.89051 -48.22944 3105 ft 8 kts 120°
2026-04-20 18:11 -18.89061 -48.22915 3105 ft 3 kts 79°
2026-04-20 18:11 -18.89019 -48.22881 3106 ft 19 kts 23°
2026-04-20 18:11 -18.89005 -48.22875 3106 ft 3 kts 25°
2026-04-20 18:12 -18.88721 -48.22750 3108 ft 84 kts 22°
2026-04-20 18:12 -18.87949 -48.22411 3107 ft 153 kts 22°
2026-04-20 18:12 -18.86783 -48.21924 3248 ft 202 kts 21°
2026-04-20 18:12 -18.85408 -48.21335 3975 ft 212 kts 21°
2026-04-20 18:13 -18.84106 -48.20741 5190 ft 200 kts 22°
2026-04-20 18:13 -18.82762 -48.20114 5717 ft 222 kts 25°
2026-04-20 18:13 -18.81542 -48.19023 5913 ft 250 kts 60°
2026-04-20 18:13 -18.81182 -48.17196 6343 ft 258 kts 99°
2026-04-20 18:14 -18.81928 -48.15482 6685 ft 268 kts 134°
2026-04-20 18:14 -18.83508 -48.14434 7021 ft 279 kts 159°
2026-04-20 18:14 -18.85248 -48.13476 7765 ft 285 kts 142°
2026-04-20 18:14 -18.86445 -48.11838 8611 ft 287 kts 111°
2026-04-20 18:15 -18.86767 -48.09745 9452 ft 290 kts 94°
2026-04-20 18:15 -18.87016 -48.07626 10213 ft 294 kts 102°
2026-04-20 18:15 -18.87503 -48.05469 10585 ft 313 kts 106°
2026-04-20 18:15 -18.88159 -48.03185 10755 ft 337 kts 108°
2026-04-20 18:16 -18.88914 -48.00749 10899 ft 359 kts 108°
2026-04-20 18:16 -18.89727 -47.98177 11089 ft 377 kts 108°
2026-04-20 18:16 -18.90563 -47.95518 11553 ft 384 kts 108°
2026-04-20 18:16 -18.91400 -47.92839 12183 ft 386 kts 108°
2026-04-20 18:17 -18.92242 -47.90142 12835 ft 387 kts 108°
2026-04-20 18:17 -18.93088 -47.87429 13435 ft 390 kts 108°
2026-04-20 18:17 -18.93938 -47.84700 13959 ft 394 kts 108°
2026-04-20 18:17 -18.94796 -47.81939 14468 ft 396 kts 108°
2026-04-20 18:18 -18.95658 -47.79169 14959 ft 399 kts 108°
2026-04-20 18:18 -18.96528 -47.76369 15445 ft 402 kts 108°
2026-04-20 18:18 -18.97404 -47.73550 15918 ft 405 kts 109°
2026-04-20 18:18 -18.98282 -47.70720 16381 ft 408 kts 109°
2026-04-20 18:19 -18.99169 -47.67861 16825 ft 411 kts 109°
2026-04-20 18:19 -19.00062 -47.64981 17268 ft 413 kts 109°
2026-04-20 18:19 -19.00957 -47.62093 17708 ft 416 kts 109°
2026-04-20 18:19 -19.01861 -47.59174 18132 ft 419 kts 109°
2026-04-20 18:20 -19.02770 -47.56236 18501 ft 422 kts 109°
2026-04-20 18:20 -19.03685 -47.53278 18860 ft 424 kts 109°
2026-04-20 18:20 -19.04602 -47.50312 19209 ft 427 kts 109°
2026-04-20 18:20 -19.05514 -47.47359 19567 ft 429 kts 109°
2026-04-20 18:21 -19.06442 -47.44351 19923 ft 431 kts 109°
2026-04-20 18:21 -19.07375 -47.41327 20273 ft 433 kts 109°
2026-04-20 18:21 -19.08309 -47.38295 20597 ft 436 kts 109°
2026-04-20 18:21 -19.09252 -47.35235 20949 ft 438 kts 109°
2026-04-20 18:22 -19.10199 -47.32159 21292 ft 441 kts 109°
2026-04-20 18:22 -19.11151 -47.29067 21630 ft 443 kts 109°
2026-04-20 18:22 -19.12106 -47.25958 21960 ft 445 kts 109°
2026-04-20 18:22 -19.13067 -47.22833 22281 ft 447 kts 109°
2026-04-20 18:23 -19.14134 -47.19747 22571 ft 448 kts 118°
2026-04-20 18:23 -19.15982 -47.17109 22856 ft 448 kts 138°
2026-04-20 18:23 -19.18492 -47.15196 23229 ft 446 kts 152°
2026-04-20 18:23 -19.21375 -47.13981 23495 ft 448 kts 167°
2026-04-20 18:24 -19.24465 -47.13486 23757 ft 450 kts 173°
2026-04-20 18:24 -19.27574 -47.13085 24017 ft 452 kts 173°
2026-04-20 18:24 -19.30702 -47.12681 24277 ft 453 kts 173°
2026-04-20 18:24 -19.33830 -47.12269 24543 ft 455 kts 173°
2026-04-20 18:25 -19.36976 -47.11842 24801 ft 456 kts 173°
2026-04-20 18:25 -19.40130 -47.11405 25049 ft 457 kts 173°
2026-04-20 18:25 -19.43284 -47.10961 25285 ft 459 kts 173°
2026-04-20 18:25 -19.46459 -47.10511 25520 ft 461 kts 173°
2026-04-20 18:26 -19.49645 -47.10058 25736 ft 462 kts 173°
2026-04-20 18:26 -19.52845 -47.09602 25965 ft 464 kts 173°
2026-04-20 18:26 -19.56048 -47.09146 26179 ft 465 kts 173°
2026-04-20 18:26 -19.59263 -47.08687 26379 ft 467 kts 173°
2026-04-20 18:27 -19.62485 -47.08228 26571 ft 468 kts 173°
2026-04-20 18:27 -19.65672 -47.07774 26742 ft 470 kts 173°
2026-04-20 18:27 -19.68919 -47.07311 26934 ft 471 kts 173°
2026-04-20 18:27 -19.72167 -47.06849 27099 ft 473 kts 173°
2026-04-20 18:28 -19.75447 -47.06381 27274 ft 474 kts 173°
2026-04-20 18:28 -19.78715 -47.05915 27526 ft 473 kts 173°
2026-04-20 18:28 -19.81959 -47.05452 27814 ft 472 kts 173°
2026-04-20 18:28 -19.85213 -47.04987 28097 ft 471 kts 173°
2026-04-20 18:29 -19.88462 -47.04523 28351 ft 471 kts 173°
2026-04-20 18:29 -19.91711 -47.04059 28609 ft 470 kts 173°
2026-04-20 18:29 -19.94962 -47.03594 28899 ft 470 kts 173°
2026-04-20 18:29 -19.98198 -47.03132 29186 ft 469 kts 173°
2026-04-20 18:30 -20.01425 -47.02670 29470 ft 469 kts 173°
2026-04-20 18:30 -20.04661 -47.02207 29759 ft 469 kts 173°
2026-04-20 18:30 -20.07888 -47.01745 30064 ft 468 kts 173°
2026-04-20 18:30 -20.11117 -47.01283 30333 ft 467 kts 173°
2026-04-20 18:31 -20.14334 -47.00821 30650 ft 465 kts 173°
2026-04-20 18:31 -20.17523 -47.00364 30965 ft 463 kts 173°
2026-04-20 18:31 -20.23893 -46.99451 30978 ft 463 kts 173°
2026-04-20 18:32 -20.30262 -46.98536 30980 ft 461 kts 173°
2026-04-20 18:32 -20.36617 -46.97624 30978 ft 460 kts 173°
2026-04-20 18:33 -20.42949 -46.96713 30985 ft 459 kts 173°
2026-04-20 18:33 -20.49293 -46.95800 30977 ft 460 kts 173°
2026-04-20 18:34 -20.55637 -46.94887 30977 ft 461 kts 173°
2026-04-20 18:34 -20.61993 -46.93970 30980 ft 462 kts 173°
2026-04-20 18:35 -20.68375 -46.93049 30982 ft 463 kts 173°
2026-04-20 18:35 -20.74762 -46.92126 30981 ft 464 kts 173°
2026-04-20 18:36 -20.81126 -46.91195 30985 ft 464 kts 173°
2026-04-20 18:36 -20.87524 -46.90196 30986 ft 465 kts 172°
2026-04-20 18:37 -20.93930 -46.89182 30987 ft 466 kts 172°
2026-04-20 18:37 -21.00338 -46.88172 30994 ft 466 kts 172°
2026-04-20 18:38 -21.06757 -46.87166 30992 ft 465 kts 172°
2026-04-20 18:38 -21.13162 -46.86161 30994 ft 465 kts 172°
2026-04-20 18:39 -21.19563 -46.85157 30992 ft 465 kts 172°
2026-04-20 18:39 -21.25969 -46.84151 31004 ft 464 kts 172°
2026-04-20 18:40 -21.32360 -46.83147 30998 ft 464 kts 172°
2026-04-20 18:40 -21.38755 -46.82140 31003 ft 464 kts 172°
2026-04-20 18:41 -21.45103 -46.81140 31002 ft 463 kts 172°
2026-04-20 18:41 -21.51480 -46.80135 31008 ft 463 kts 172°
2026-04-20 18:42 -21.57854 -46.79130 31007 ft 463 kts 172°
2026-04-20 18:42 -21.64242 -46.78121 31014 ft 464 kts 172°
2026-04-20 18:43 -21.70626 -46.77112 31014 ft 464 kts 172°
2026-04-20 18:43 -21.77026 -46.76100 31022 ft 464 kts 172°
2026-04-20 18:44 -21.83422 -46.75087 31020 ft 465 kts 172°
2026-04-20 18:44 -21.89827 -46.74072 31020 ft 466 kts 172°
2026-04-20 18:45 -21.96251 -46.73053 31024 ft 466 kts 172°
2026-04-20 18:45 -22.02663 -46.72035 31022 ft 466 kts 172°
2026-04-20 18:46 -22.09090 -46.71014 31021 ft 466 kts 172°
2026-04-20 18:46 -22.15462 -46.70000 31024 ft 466 kts 172°
2026-04-20 18:47 -22.21867 -46.68980 31029 ft 465 kts 172°
2026-04-20 18:47 -22.28267 -46.67960 31025 ft 465 kts 172°
2026-04-20 18:48 -22.34671 -46.66939 31023 ft 464 kts 172°
2026-04-20 18:48 -22.41063 -46.65918 31021 ft 464 kts 172°
2026-04-20 18:49 -22.47430 -46.64793 31026 ft 464 kts 171°
2026-04-20 18:49 -22.53788 -46.63554 31033 ft 464 kts 171°
2026-04-20 18:50 -22.60103 -46.62324 31033 ft 464 kts 171°
2026-04-20 18:50 -22.66269 -46.61140 31035 ft 464 kts 171°
2026-04-20 18:51 -22.72630 -46.59926 31044 ft 464 kts 171°
2026-04-20 18:51 -22.79000 -46.58710 31047 ft 464 kts 171°
2026-04-20 18:52 -22.85366 -46.57493 31045 ft 465 kts 171°
2026-04-20 18:52 -22.91751 -46.56271 31045 ft 466 kts 171°
2026-04-20 18:53 -22.98132 -46.55048 31045 ft 466 kts 171°
2026-04-20 18:53 -23.04527 -46.53821 31054 ft 466 kts 171°
2026-04-20 18:54 -23.10924 -46.52593 31063 ft 467 kts 171°
2026-04-20 18:54 -23.16861 -46.51452 31078 ft 467 kts 171°
2026-04-20 18:55 -23.23249 -46.50224 31102 ft 466 kts 171°
2026-04-20 18:55 -23.29632 -46.48995 31122 ft 466 kts 171°
2026-04-20 18:56 -23.35985 -46.47770 31132 ft 465 kts 171°
2026-04-20 18:56 -23.42347 -46.46542 31134 ft 465 kts 171°
2026-04-20 18:57 -23.48730 -46.45385 31123 ft 463 kts 177°
2026-04-20 18:57 -23.55074 -46.46116 31125 ft 460 kts 197°
2026-04-20 18:58 -23.59985 -46.48390 31125 ft 458 kts 206°
2026-04-20 18:58 -23.65684 -46.51435 31113 ft 459 kts 206°
2026-04-20 18:59 -23.71450 -46.54439 31102 ft 459 kts 206°
2026-04-20 18:59 -23.77218 -46.57420 31098 ft 459 kts 206°
2026-04-20 19:00 -23.82987 -46.60406 31073 ft 459 kts 206°
2026-04-20 19:00 -23.88770 -46.63398 31075 ft 459 kts 206°
2026-04-20 19:01 -23.94522 -46.66365 31078 ft 460 kts 206°
2026-04-20 19:01 -24.00345 -46.69372 31084 ft 460 kts 206°
2026-04-20 19:02 -24.06062 -46.72330 31079 ft 460 kts 206°
2026-04-20 19:02 -24.11854 -46.75330 31079 ft 461 kts 206°
2026-04-20 19:03 -24.17626 -46.78328 31074 ft 461 kts 206°
2026-04-20 19:03 -24.23423 -46.81355 31070 ft 462 kts 206°
2026-04-20 19:04 -24.29224 -46.84389 31071 ft 461 kts 206°
2026-04-20 19:04 -24.35014 -46.87419 31072 ft 461 kts 206°
2026-04-20 19:05 -24.40801 -46.90451 31069 ft 461 kts 206°
2026-04-20 19:05 -24.46595 -46.93489 31068 ft 461 kts 206°
2026-04-20 19:06 -24.52359 -46.96514 31067 ft 461 kts 206°
2026-04-20 19:06 -24.58148 -46.99556 31067 ft 461 kts 206°
2026-04-20 19:07 -24.63778 -47.02895 31070 ft 460 kts 213°
2026-04-20 19:07 -24.69123 -47.06759 31068 ft 460 kts 214°
2026-04-20 19:08 -24.77162 -47.12570 31069 ft 461 kts 213°
2026-04-20 19:09 -24.82540 -47.16404 31068 ft 461 kts 213°
2026-04-20 19:09 -24.87936 -47.20241 31067 ft 461 kts 213°
2026-04-20 19:10 -24.93326 -47.24079 31064 ft 462 kts 213°
2026-04-20 19:10 -24.98719 -47.27925 31074 ft 462 kts 213°
2026-04-20 19:11 -25.04089 -47.31760 31072 ft 463 kts 213°
2026-04-20 19:11 -25.09498 -47.35627 31072 ft 463 kts 213°
2026-04-20 19:12 -25.14901 -47.39494 31069 ft 463 kts 214°
2026-04-20 19:12 -25.20306 -47.43366 31069 ft 463 kts 214°
2026-04-20 19:13 -25.25724 -47.47247 31070 ft 464 kts 214°
2026-04-20 19:13 -25.31154 -47.51124 30618 ft 471 kts 214°
2026-04-20 19:13 -25.33908 -47.53093 29895 ft 470 kts 214°
2026-04-20 19:14 -25.36657 -47.55060 28951 ft 470 kts 214°
2026-04-20 19:14 -25.39408 -47.57030 28030 ft 471 kts 214°
2026-04-20 19:14 -25.42163 -47.59006 26884 ft 475 kts 214°
2026-04-20 19:14 -25.44941 -47.61005 25801 ft 478 kts 214°
2026-04-20 19:15 -25.47733 -47.63017 25012 ft 475 kts 214°
2026-04-20 19:15 -25.50488 -47.65004 24229 ft 472 kts 214°
2026-04-20 19:15 -25.53227 -47.66980 23482 ft 467 kts 213°
2026-04-20 19:15 -25.55939 -47.68938 22667 ft 462 kts 213°
2026-04-20 19:16 -25.58615 -47.70871 21928 ft 456 kts 213°
2026-04-20 19:16 -25.61245 -47.72773 21214 ft 449 kts 213°
2026-04-20 19:16 -25.63849 -47.74655 20521 ft 444 kts 212°
2026-04-20 19:16 -25.66387 -47.76491 19846 ft 438 kts 212°
2026-04-20 19:17 -25.68954 -47.78349 19153 ft 434 kts 212°
2026-04-20 19:17 -25.71439 -47.80148 18480 ft 430 kts 212°
2026-04-20 19:17 -25.73935 -47.81957 17708 ft 426 kts 212°
2026-04-20 19:17 -25.76397 -47.83741 17007 ft 421 kts 212°
2026-04-20 19:18 -25.78836 -47.85510 16322 ft 416 kts 212°
2026-04-20 19:18 -25.81246 -47.87258 15663 ft 411 kts 212°
2026-04-20 19:18 -25.83628 -47.88987 15012 ft 406 kts 211°
2026-04-20 19:18 -25.85985 -47.90699 14366 ft 402 kts 211°
2026-04-20 19:19 -25.88316 -47.92393 13683 ft 399 kts 211°
2026-04-20 19:19 -25.90633 -47.94076 12982 ft 396 kts 212°
2026-04-20 19:19 -25.92926 -47.95744 12325 ft 391 kts 212°
2026-04-20 19:19 -25.95187 -47.97389 11680 ft 387 kts 212°
2026-04-20 19:20 -25.97425 -47.99018 11311 ft 377 kts 212°
2026-04-20 19:20 -25.99569 -48.00581 11115 ft 363 kts 212°
2026-04-20 19:20 -26.01618 -48.02130 10952 ft 349 kts 217°
2026-04-20 19:20 -26.03301 -48.04028 10807 ft 339 kts 230°
2026-04-20 19:21 -26.04537 -48.06175 10642 ft 330 kts 241°
2026-04-20 19:21 -26.05480 -48.08445 10516 ft 320 kts 244°
2026-04-20 19:21 -26.06378 -48.10669 10370 ft 310 kts 244°
2026-04-20 19:21 -26.07150 -48.12898 10086 ft 313 kts 257°
2026-04-20 19:22 -26.07030 -48.15339 9868 ft 322 kts 284°
2026-04-20 19:22 -26.06339 -48.17693 9625 ft 317 kts 285°
2026-04-20 19:22 -26.05710 -48.20021 9374 ft 312 kts 284°
2026-04-20 19:22 -26.05115 -48.22332 9122 ft 313 kts 284°
2026-04-20 19:23 -26.04501 -48.24757 8914 ft 342 kts 284°
2026-04-20 19:23 -26.03844 -48.27361 8665 ft 350 kts 284°
2026-04-20 19:23 -26.03203 -48.29893 8397 ft 336 kts 284°
2026-04-20 19:23 -26.02577 -48.32357 8130 ft 319 kts 284°
2026-04-20 19:24 -26.01995 -48.34648 7940 ft 303 kts 284°
2026-04-20 19:24 -26.01441 -48.36824 7914 ft 288 kts 284°
2026-04-20 19:24 -26.00895 -48.38978 7910 ft 288 kts 284°
2026-04-20 19:24 -26.00351 -48.41123 7901 ft 289 kts 284°
2026-04-20 19:25 -25.99803 -48.43284 7910 ft 290 kts 284°
2026-04-20 19:25 -25.99254 -48.45444 7910 ft 290 kts 284°
2026-04-20 19:25 -25.98708 -48.47591 7906 ft 289 kts 284°
2026-04-20 19:25 -25.98160 -48.49744 7872 ft 290 kts 284°
2026-04-20 19:26 -25.97610 -48.51903 7612 ft 291 kts 285°
2026-04-20 19:26 -25.97062 -48.54054 7374 ft 287 kts 285°
2026-04-20 19:26 -25.96522 -48.56171 7135 ft 284 kts 285°
2026-04-20 19:26 -25.95983 -48.58280 6895 ft 282 kts 285°
2026-04-20 19:27 -25.95450 -48.60364 6873 ft 279 kts 285°
2026-04-20 19:27 -25.94918 -48.62425 6867 ft 283 kts 287°
2026-04-20 19:27 -25.94093 -48.64418 6872 ft 286 kts 300°
2026-04-20 19:27 -25.93037 -48.66320 6572 ft 293 kts 302°
2026-04-20 19:28 -25.91947 -48.68250 6269 ft 290 kts 300°
2026-04-20 19:28 -25.91302 -48.70313 5940 ft 288 kts 272°
2026-04-20 19:28 -25.91684 -48.72459 5667 ft 284 kts 244°
2026-04-20 19:28 -25.92838 -48.74210 5379 ft 281 kts 223°
2026-04-20 19:29 -25.94430 -48.75452 5096 ft 278 kts 210°
2026-04-20 19:29 -25.96087 -48.76518 4888 ft 270 kts 210°
2026-04-20 19:29 -25.97684 -48.77542 4750 ft 261 kts 210°
2026-04-20 19:29 -25.99216 -48.78531 4657 ft 247 kts 210°
2026-04-20 19:30 -26.00658 -48.79470 4533 ft 233 kts 211°
2026-04-20 19:30 -26.02005 -48.80350 4425 ft 217 kts 211°
2026-04-20 19:30 -26.03284 -48.81190 4165 ft 209 kts 211°
2026-04-20 19:30 -26.04509 -48.81996 3900 ft 203 kts 211°
2026-04-20 19:31 -26.05714 -48.82790 3661 ft 201 kts 211°
2026-04-20 19:31 -26.06918 -48.83584 3431 ft 201 kts 211°
2026-04-20 19:31 -26.08093 -48.84360 3169 ft 191 kts 211°
2026-04-20 19:31 -26.09192 -48.85087 2987 ft 177 kts 211°
2026-04-20 19:32 -26.10223 -48.85768 2882 ft 173 kts 211°
2026-04-20 19:32 -26.11272 -48.86457 2676 ft 174 kts 208°
2026-04-20 19:32 -26.12397 -48.86714 2492 ft 167 kts 165°
2026-04-20 19:32 -26.13495 -48.86271 2306 ft 171 kts 163°
2026-04-20 19:33 -26.14648 -48.85982 2032 ft 166 kts 166°
2026-04-20 19:33 -26.15763 -48.85723 1808 ft 160 kts 165°
2026-04-20 19:33 -26.16815 -48.85468 1625 ft 149 kts 165°
2026-04-20 19:33 -26.17828 -48.85176 1371 ft 148 kts 148°
2026-04-20 19:34 -26.18518 -48.84382 1203 ft 142 kts 128°
2026-04-20 19:34 -26.19214 -48.83596 988 ft 143 kts 133°
2026-04-20 19:34 -26.19927 -48.82833 761 ft 141 kts 134°
2026-04-20 19:34 -26.20631 -48.82085 546 ft 140 kts 135°
2026-04-20 19:35 -26.21313 -48.81336 312 ft 134 kts 129°
2026-04-20 19:35 -26.21876 -48.80520 88 ft 133 kts 127°
2026-04-20 19:35 -26.22418 -48.79774 23 ft 92 kts 129°
2026-04-20 19:35 -26.22602 -48.79521 22 ft 12 kts 129°
2026-04-20 19:36 -26.22664 -48.79467 23 ft 7 kts 148°
2026-04-20 19:36 -26.22672 -48.79443 25 ft 1 kts 65°
2026-04-20 19:36 -26.22661 -48.79443 25 ft 2 kts 346°
2026-04-20 19:36 -26.22651 -48.79455 25 ft 3 kts 308°
2026-04-20 19:37 -26.22628 -48.79488 22 ft 7 kts 307°
2026-04-20 19:37 -26.22590 -48.79544 22 ft 11 kts 307°
2026-04-20 19:37 -26.22540 -48.79617 23 ft 13 kts 307°
2026-04-20 19:37 -26.22478 -48.79698 23 ft 15 kts 313°
2026-04-20 19:38 -26.22403 -48.79789 23 ft 17 kts 312°
2026-04-20 19:38 -26.22333 -48.79892 26 ft 17 kts 306°
2026-04-20 19:38 -26.22294 -48.79971 24 ft 11 kts 266°
2026-04-20 19:38 -26.22329 -48.80030 22 ft 10 kts 241°
2026-04-20 19:39 -26.22376 -48.80086 23 ft 8 kts 218°
2026-04-20 19:39 -26.22397 -48.80104 24 ft 0 kts 218°